1489021200.47,47646,7.75,73384.5,-6.75,-34.83,-34.31,0,*5A
1489021201.71,47647,7.75,73366.3,-6.77,-34.65,-34.13,0,*51
1489021202.95,47648,7.81,73396.3,-6.75,-34.71,-34.25,0,*5C
1489021204.22,47649,7.81,73390.5,-6.75,-34.89,-34.65,0,*5E
1489021205.48,47650,7.75,73384.3,-6.75,-34.83,-34.47,0,*5C
1489021206.77,47651,7.75,73366.5,-6.75,-34.83,-34.31,0,*5C
1489021208.03,47652,7.75,73374.8,-6.75,-34.65,-34.41,0,*50
1489021209.3,47653,7.81,73390.3,-6.75,-34.65,-34.13,0,*56
1489021210.53,47654,7.75,73386.3,-6.77,-34.65,-34.25,0,*56
1489021211.79,47655,7.75,73388.0,-6.75,-34.65,-34.25,0,*55
1489021213.03,47656,7.75,73394.3,-6.75,-34.71,-34.41,0,*51
1489021214.29,47657,7.81,73388.8,-6.75,-34.83,-34.47,0,*5B
1489021215.53,47658,7.75,73386.3,-6.75,-34.71,-34.41,0,*5F
1489021216.76,47659,7.81,73398.3,-6.77,-34.65,-34.41,0,*59
1489021218.01,47660,7.75,73392.3,-6.75,-34.71,-34.47,0,*52
1489021219.25,47661,7.81,73386.5,-6.75,-34.47,-34.13,0,*57
1489021220.47,47662,7.81,73388.0,-6.77,-34.47,-34.07,0,*53
1489021221.7,47663,7.75,73394.5,-6.77,-34.65,-34.41,0,*50
1489021222.98,47664,7.75,73398.5,-6.75,-34.71,-34.65,0,*56
1489021224.21,47665,7.81,73388.8,-6.75,-34.47,-34.25,0,*56
1489021225.45,47666,7.81,73368.3,-6.75,-34.41,-34.13,0,*56
1489021226.74,47667,7.81,73390.5,-6.75,-34.53,-34.31,0,*54
1489021228.0,47668,7.75,73388.5,-6.75,-34.53,-34.25,0,*5E
1489021229.23,47669,7.81,73390.3,-6.75,-34.71,-34.41,0,*5D
1489021230.48,47670,7.75,73386.0,-6.75,-34.47,-34.13,0,*57
1489021231.74,47671,7.75,73390.5,-6.75,-34.53,-34.25,0,*56
1489021232.97,47672,7.75,73386.8,-6.75,-34.89,-34.47,0,*56
1489021234.21,47673,7.75,73384.0,-6.75,-34.71,-34.41,0,*56
1489021235.51,47674,7.75,73388.3,-6.75,-34.83,-34.65,0,*5A
1489021236.74,47675,7.75,73392.0,-6.75,-34.89,-34.47,0,*51
1489021237.98,47676,7.75,73388.5,-6.75,-34.89,-34.71,0,*57
1489021239.21,47677,7.75,73390.0,-6.75,-34.89,-34.71,0,*56
1489021240.47,47678,7.81,73392.3,-6.75,-34.89,-34.83,0,*54
1489021241.71,47679,7.81,73392.3,-6.77,-35.01,-34.83,0,*56
1489021243.0,47680,7.81,73390.8,-6.75,-34.83,-34.65,0,*51
1489021244.24,47681,7.81,73382.8,-6.77,-34.83,-34.47,0,*52
1489021245.48,47682,7.81,73378.8,-6.75,-34.47,-34.07,0,*5F
1489021246.72,47683,7.75,73386.3,-6.75,-34.71,-34.25,0,*5B
1489021247.96,47684,7.81,73388.8,-6.77,-34.65,-34.13,0,*5E
1489021249.2,47685,7.81,73384.0,-6.75,-34.47,-34.07,0,*58
1489021250.43,47686,7.75,73380.5,-6.77,-34.65,-34.25,0,*59
1489021251.67,47687,7.81,73380.8,-6.77,-34.65,-34.13,0,*5D
1489021252.92,47688,7.75,73376.8,-6.75,-34.71,-34.13,0,*55
1489021254.15,47689,7.81,73384.8,-6.77,-34.83,-34.13,0,*5B
1489021255.39,47690,7.75,73386.5,-6.77,-34.83,-34.07,0,*56
1489021256.63,47691,7.75,73380.3,-6.77,-34.83,-34.07,0,*57
1489021257.89,47692,7.75,73378.0,-6.77,-34.53,-33.73,0,*5D
1489021259.16,47693,7.81,73374.5,-6.79,-34.47,-33.49,0,*5E
1489021260.43,47694,7.81,73386.3,-6.79,-34.35,-33.37,0,*55
1489021261.69,47695,7.75,73388.5,-6.79,-34.01,-32.91,0,*5E
1489021262.96,47696,7.75,73386.8,-6.79,-33.83,-32.85,0,*55
1489021264.22,47697,7.81,73372.8,-6.79,-33.49,-32.35,0,*59
1489021265.49,47698,7.75,73360.3,-6.79,-32.75,-31.67,0,*5C
1489021266.75,47699,7.75,73360.5,-6.79,-32.57,-31.51,0,*58
1489021267.98,47700,7.75,73362.5,-6.79,-32.35,-31.29,0,*52
1489021269.26,47701,7.81,73364.5,-6.81,-31.95,-30.77,0,*57
1489021270.5,47702,7.75,73368.0,-6.79,-31.33,-30.45,0,*5E
1489021271.76,47703,7.81,73382.3,-6.79,-30.95,-29.83,0,*50
1489021273.03,47704,7.75,73378.8,-6.79,-30.27,-29.35,0,*53
1489021274.26,47705,7.81,73380.5,-6.81,-29.73,-28.85,0,*56
1489021275.53,47706,7.81,73380.8,-6.79,-29.17,-28.31,0,*5F
1489021276.76,47707,7.75,73380.0,-6.81,-28.47,-27.67,0,*51
1489021277.99,47708,7.81,73388.0,-6.81,-27.83,-27.13,0,*5A
1489021279.25,47709,7.81,73372.8,-6.79,-26.87,-26.33,0,*5A
1489021280.52,47710,7.81,73376.0,-6.79,-26.03,-25.81,0,*54
1489021281.79,47711,7.75,73384.5,-6.79,-25.81,-25.49,0,*58
1489021282.99,47712,7.75,73378.5,-6.77,-24.93,-24.93,0,*51
1489021284.23,47713,7.81,73372.3,-6.79,-24.31,-24.31,0,*5E
1489021285.49,47714,7.75,73374.8,-6.79,-23.89,-23.99,0,*58
1489021286.77,47715,7.75,73376.0,-6.79,-23.49,-23.69,0,*5A
1489021288.06,47716,7.81,73376.8,-6.79,-23.03,-23.49,0,*55
1489021289.3,47717,7.75,73372.5,-6.77,-22.57,-23.03,0,*54
1489021290.56,47718,7.81,73372.3,-6.77,-22.17,-22.73,0,*59
1489021291.82,47719,7.81,73374.5,-6.77,-21.57,-22.31,0,*59
1489021293.09,47720,7.75,73372.0,-6.77,-21.27,-22.17,0,*50
1489021294.32,47721,7.81,73372.8,-6.77,-20.79,-22.03,0,*5E
1489021295.59,47722,7.75,73366.3,-6.77,-20.49,-21.87,0,*51
1489021296.81,47723,7.81,73370.8,-6.77,-20.15,-21.73,0,*52
1489021298.01,47724,7.75,73374.5,-6.77,-20.05,-21.77,0,*50
1489021299.22,47725,7.81,73376.3,-6.77,-19.75,-21.77,0,*5C
1489021300.43,47726,7.75,73376.3,-6.77,-19.75,-21.93,0,*55
1489021301.7,47727,7.75,73378.3,-6.75,-19.71,-22.21,0,*58
1489021302.96,47728,7.81,73382.0,-6.75,-19.61,-22.37,0,*51
1489021304.23,47729,7.81,73366.0,-6.75,-19.57,-22.53,0,*57
1489021305.49,47730,7.81,73372.0,-6.77,-19.61,-22.73,0,*5A
1489021306.76,47731,7.75,73376.0,-6.75,-19.91,-23.19,0,*5B
1489021308.04,47732,7.75,73378.3,-6.75,-20.19,-23.69,0,*55
1489021309.3,47733,7.81,73380.3,-6.75,-20.43,-24.25,0,*54
1489021310.54,47734,7.81,73372.3,-6.75,-20.63,-24.61,0,*51
1489021311.77,47735,7.75,73370.0,-6.77,-20.93,-24.83,0,*51
1489021313.02,47736,7.81,73368.3,-6.73,-21.23,-25.35,0,*50
1489021314.28,47737,7.81,73370.3,-6.73,-21.87,-26.17,0,*5C
1489021315.54,47738,7.81,73368.3,-6.73,-22.31,-26.55,0,*5B
1489021316.79,47739,7.81,73364.8,-6.73,-22.77,-27.07,0,*5E
1489021318.05,47740,7.81,73362.5,-6.73,-23.23,-27.39,0,*5D
1489021319.26,47741,7.75,73340.8,-6.69,-23.75,-27.77,0,*5E
1489021320.5,47742,7.75,73342.5,-6.69,-24.21,-28.37,0,*50
1489021321.75,47743,7.81,73348.0,-6.69,-24.71,-28.53,0,*56
1489021322.95,47744,7.81,73354.5,-6.69,-25.49,-29.23,0,*5D
1489021324.17,47745,7.75,73350.0,-6.73,-26.07,-29.57,0,*5D
1489021325.4,47746,7.75,73348.0,-6.69,-26.71,-30.11,0,*5E
1489021326.66,47747,7.75,73350.0,-6.69,-27.35,-30.61,0,*59
1489021327.9,47748,7.75,73352.5,-6.73,-28.05,-31.01,0,*56
1489021329.14,47749,7.75,73356.8,-6.69,-28.59,-31.05,0,*51
1489021330.39,47750,7.75,73354.5,-6.69,-29.13,-31.57,0,*51
1489021331.63,47751,7.75,73350.8,-6.69,-29.23,-31.39,0,*5B
1489021332.84,47752,7.75,73360.8,-6.69,-29.95,-31.67,0,*5E
1489021334.08,47753,7.75,73354.0,-6.69,-29.95,-31.39,0,*54
1489021335.29,47754,7.75,73358.8,-6.73,-30.45,-31.67,0,*56
1489021336.55,47755,7.75,73360.8,-6.73,-30.95,-31.85,0,*56
1489021337.76,47756,7.75,73366.3,-6.73,-31.33,-32.13,0,*54
1489021338.99,47757,7.81,73348.5,-6.69,-31.33,-31.85,0,*52
1489021340.25,47758,7.81,73344.5,-6.73,-31.39,-31.73,0,*55
1489021341.51,47759,7.75,73372.8,-6.73,-31.73,-31.85,0,*53
1489021342.75,47760,7.75,73368.3,-6.73,-32.01,-31.73,0,*56
1489021343.99,47761,7.75,73372.3,-6.73,-32.13,-31.73,0,*54
1489021345.22,47762,7.75,73370.5,-6.69,-32.63,-32.13,0,*5E
1489021346.48,47763,7.75,73372.0,-6.73,-32.45,-31.91,0,*59
1489021347.74,47764,7.75,73364.5,-6.69,-32.75,-31.91,0,*56
1489021348.98,47765,7.75,73368.3,-6.69,-32.79,-32.01,0,*51
1489021350.24,47766,7.75,73358.8,-6.67,-32.75,-31.67,0,*53
1489021351.48,47767,7.75,73366.5,-6.67,-33.03,-31.79,0,*5D
1489021352.74,47768,7.75,73374.5,-6.67,-33.31,-32.23,0,*5F
1489021353.98,47769,7.75,73372.5,-6.69,-33.67,-32.45,0,*53
1489021355.19,47770,7.75,73364.3,-6.73,-33.55,-32.39,0,*5A
1489021356.4,47771,7.75,73364.8,-6.69,-33.83,-32.57,0,*53
1489021357.64,47772,7.75,73352.8,-6.73,-33.67,-32.45,0,*52
1489021358.85,47773,7.75,73342.8,-6.69,-33.83,-32.57,0,*51
1489021360.11,47774,7.75,73346.0,-6.69,-34.19,-32.75,0,*52
1489021361.34,47775,7.75,73348.8,-6.69,-34.25,-32.97,0,*50
1489021362.58,47776,7.75,73354.5,-6.69,-34.35,-33.15,0,*59
1489021363.81,47777,7.75,73360.8,-6.69,-34.25,-32.97,0,*52
1489021365.05,47778,7.81,73362.8,-6.69,-34.35,-33.15,0,*57
1489021366.28,47779,7.75,73358.8,-6.69,-34.25,-33.09,0,*5A
1489021367.49,47780,7.75,73362.5,-6.73,-34.25,-33.15,0,*5A
1489021368.76,47781,7.75,73368.0,-6.73,-34.35,-33.27,0,*5B
1489021369.99,47782,7.75,73370.5,-6.73,-34.47,-33.37,0,*5C
1489021371.23,47783,7.75,73374.5,-6.69,-34.47,-33.49,0,*5F
1489021372.44,47784,7.75,73376.0,-6.73,-34.41,-33.37,0,*5C
1489021373.66,47785,7.75,73374.0,-6.69,-34.47,-33.55,0,*54
1489021374.87,47786,7.75,73374.8,-6.69,-34.41,-33.37,0,*55
1489021376.12,47787,7.75,73370.8,-6.73,-34.35,-33.37,0,*5C
1489021377.35,47788,7.75,73370.0,-6.69,-34.35,-33.55,0,*5C
1489021378.61,47789,7.75,73374.5,-6.73,-34.35,-33.49,0,*5B
1489021379.85,47790,7.75,73358.3,-6.75,-34.41,-33.55,0,*5B
1489021381.12,47791,7.75,73364.3,-6.75,-34.47,-33.73,0,*58
1489021382.38,47792,7.75,73368.5,-6.75,-34.47,-33.61,0,*58
1489021383.68,47793,7.75,73366.5,-6.75,-34.31,-33.31,0,*5D
1489021384.94,47794,7.75,73368.8,-6.75,-34.31,-33.37,0,*5C
1489021386.21,47795,7.75,73374.8,-6.75,-34.31,-33.21,0,*5A
1489021387.42,47796,7.75,73370.5,-6.77,-34.13,-33.21,0,*5B
1489021388.68,47797,7.75,73362.0,-6.75,-33.89,-33.03,0,*5C
1489021389.89,47798,7.75,73366.3,-6.77,-34.07,-33.15,0,*57
1489021391.14,47799,7.75,73370.5,-6.75,-34.07,-33.15,0,*54
1489021392.37,47800,7.81,73380.3,-6.77,-34.25,-33.31,0,*5F
1489021393.63,47801,7.75,73368.8,-6.77,-34.31,-33.31,0,*5B
1489021394.87,47802,7.75,73366.3,-6.75,-34.13,-33.15,0,*5C
1489021396.11,47803,7.81,73362.3,-6.75,-34.13,-33.03,0,*5A
1489021397.35,47804,7.75,73378.5,-6.77,-34.13,-32.85,0,*50
1489021398.64,47805,7.75,73382.0,-6.75,-33.77,-32.79,0,*55
1489021399.91,47806,7.75,73380.8,-6.75,-33.95,-32.85,0,*59
1489021401.17,47807,7.75,73372.3,-6.75,-34.07,-32.97,0,*57
1489021402.44,47808,7.75,73370.0,-6.75,-34.07,-32.97,0,*58
1489021403.71,47809,7.75,73376.5,-6.75,-34.07,-32.85,0,*5A
1489021404.94,47810,7.75,73374.8,-6.77,-34.13,-32.97,0,*56
1489021406.21,47811,7.75,73358.0,-6.75,-34.07,-32.79,0,*50
1489021407.48,47812,7.75,73354.8,-6.75,-34.25,-32.85,0,*50
1489021408.72,47813,7.75,73356.0,-6.75,-34.25,-33.03,0,*5E
1489021409.95,47814,7.75,73360.5,-6.77,-34.31,-33.03,0,*5E
1489021411.19,47815,7.75,73368.8,-6.75,-34.41,-33.03,0,*5A
1489021412.45,47816,7.75,73366.8,-6.75,-34.31,-33.03,0,*5E
1489021413.72,47817,7.75,73380.0,-6.75,-34.41,-32.85,0,*57
1489021414.96,47818,7.75,73390.8,-6.75,-34.41,-33.03,0,*57
1489021416.19,47819,7.75,73384.3,-6.77,-34.41,-32.97,0,*58
1489021417.43,47820,7.75,73374.5,-6.77,-34.41,-32.85,0,*51
1489021418.69,47821,7.75,73380.0,-6.75,-34.25,-32.85,0,*50
1489021419.96,47822,7.75,73372.3,-6.75,-34.41,-32.85,0,*51
1489021421.22,47823,7.75,73364.5,-6.75,-34.13,-32.79,0,*54
1489021422.49,47824,7.75,73366.5,-6.75,-34.25,-32.85,0,*55
1489021423.75,47825,7.75,73370.0,-6.75,-34.41,-32.85,0,*56
1489021425.02,47826,7.75,73372.0,-6.75,-34.13,-32.63,0,*5A
1489021426.28,47827,7.75,73382.5,-6.75,-34.41,-32.85,0,*54
1489021427.55,47828,7.75,73376.5,-6.75,-34.41,-32.85,0,*5B
1489021428.79,47829,7.81,73378.5,-6.73,-34.35,-32.91,0,*5A
1489021430.06,47830,7.75,73380.3,-6.75,-34.41,-32.79,0,*51
1489021431.29,47831,7.81,73382.3,-6.77,-34.41,-32.85,0,*51
1489021432.56,47832,7.75,73374.8,-6.75,-34.41,-32.79,0,*53
1489021433.86,47833,7.75,73382.5,-6.75,-34.53,-32.85,0,*52
1489021435.15,47834,7.81,73386.3,-6.75,-34.53,-32.79,0,*56
1489021436.39,47835,7.75,73390.3,-6.77,-34.47,-32.97,0,*50
1489021437.66,47836,7.81,73402.0,-6.75,-34.47,-32.85,0,*52
1489021438.94,47837,7.75,73392.5,-6.75,-34.47,-32.85,0,*53
1489021440.21,47838,7.75,73392.3,-6.75,-34.47,-32.79,0,*5F
1489021441.48,47839,7.75,73388.8,-6.77,-34.31,-32.79,0,*5D
1489021442.77,47840,7.81,73392.3,-6.75,-34.31,-32.79,0,*51
1489021444.03,47841,7.75,73394.0,-6.75,-34.41,-32.85,0,*54
1489021445.3,47842,7.75,73402.0,-6.75,-34.41,-32.79,0,*54
1489021446.54,47843,7.75,73398.0,-6.75,-34.47,-33.03,0,*5F
1489021447.79,47844,7.81,73398.3,-6.75,-34.47,-33.21,0,*58
1489021449.03,47845,7.75,73396.0,-6.75,-34.47,-33.15,0,*5E
1489021450.3,47846,7.75,73388.0,-6.75,-34.53,-33.21,0,*5F
1489021451.55,47847,7.75,73390.0,-6.75,-34.47,-33.21,0,*5B
1489021452.84,47848,7.81,73392.0,-6.75,-34.53,-33.31,0,*50
1489021454.11,47849,7.75,73384.5,-6.75,-34.65,-33.37,0,*52
1489021455.33,47850,7.75,73382.0,-6.77,-34.71,-33.37,0,*5D
1489021456.58,47851,7.75,73380.3,-6.77,-34.53,-33.37,0,*5C
1489021457.8,47852,7.75,73376.8,-6.77,-34.47,-33.37,0,*5A
1489021459.09,47853,7.75,73368.8,-6.75,-34.53,-33.43,0,*5F
1489021460.36,47854,7.75,73368.8,-6.75,-34.71,-33.73,0,*5B
1489021461.63,47855,7.75,73366.8,-6.77,-34.65,-33.73,0,*5D
1489021462.9,47856,7.75,73374.0,-6.77,-34.53,-33.73,0,*5B
1489021464.16,47857,7.75,73376.8,-6.75,-34.71,-33.73,0,*58
1489021465.43,47858,7.75,73380.8,-6.77,-34.83,-33.77,0,*5C
1489021466.69,47859,7.75,73384.5,-6.75,-34.89,-33.89,0,*54
1489021467.92,47860,7.75,73382.3,-6.77,-34.83,-33.95,0,*5B
1489021469.16,47861,7.75,73382.3,-6.77,-34.83,-34.07,0,*56
1489021470.4,47862,7.75,73380.0,-6.77,-34.71,-33.77,0,*58
1489021471.64,47863,7.75,73378.5,-6.77,-34.47,-33.89,0,*5D
1489021472.9,47864,7.75,73380.5,-6.77,-34.53,-33.89,0,*5F
1489021474.15,47865,7.75,73386.3,-6.75,-34.71,-34.07,0,*5D
1489021475.38,47866,7.75,73390.8,-6.75,-34.71,-34.25,0,*5E
1489021476.64,47867,7.75,73394.5,-6.79,-34.89,-34.31,0,*51
1489021477.86,47868,7.75,73402.3,-6.81,-34.89,-34.31,0,*59
1489021479.13,47869,7.75,73394.0,-6.79,-34.95,-34.47,0,*53
1489021480.39,47870,7.75,73390.0,-6.79,-34.77,-34.19,0,*5C
1489021481.66,47871,7.75,73380.3,-6.79,-34.71,-34.31,0,*51
1489021482.91,47872,7.75,73386.8,-6.81,-34.53,-34.19,0,*5F
1489021484.18,47873,7.75,73390.3,-6.79,-34.71,-34.35,0,*57
1489021485.42,47874,7.75,73390.3,-6.79,-34.77,-34.47,0,*53
1489021486.65,47875,7.75,73394.8,-6.81,-34.89,-34.35,0,*51
1489021487.88,47876,7.75,73384.5,-6.81,-34.77,-34.35,0,*53
1489021489.15,47877,7.75,73378.3,-6.79,-34.71,-34.35,0,*53
1489021490.38,47878,7.75,73366.8,-6.79,-34.89,-34.47,0,*5E
1489021491.64,47879,7.75,73362.5,-6.79,-34.89,-34.35,0,*5A
1489021492.85,47880,7.75,73362.5,-6.81,-34.77,-34.47,0,*5F
1489021494.11,47881,7.75,73360.8,-6.79,-34.89,-34.53,0,*5D
1489021495.36,47882,7.75,73370.3,-6.81,-34.77,-34.53,0,*58
1489021496.6,47883,7.75,73372.0,-6.81,-34.77,-34.53,0,*59
1489021497.84,47884,7.75,73374.5,-6.81,-34.95,-34.47,0,*57
1489021499.08,47885,7.75,73382.0,-6.81,-34.95,-34.71,0,*53
1489021500.32,47886,7.75,73382.0,-6.81,-34.71,-34.35,0,*5A
1489021501.58,47887,7.75,73376.5,-6.81,-34.95,-34.53,0,*51
1489021502.82,47888,7.75,73382.3,-6.81,-34.95,-34.71,0,*5E
1489021504.06,47889,7.75,73382.5,-6.81,-35.07,-34.71,0,*55
1489021505.3,47890,7.75,73384.8,-6.81,-35.07,-34.89,0,*5A
1489021506.53,47891,7.75,73380.8,-6.81,-35.07,-34.89,0,*5B
1489021507.77,47892,7.75,73386.0,-6.85,-35.01,-34.95,0,*57
1489021509.0,47893,7.75,73390.5,-6.85,-35.07,-34.89,0,*5D
1489021510.23,47894,7.75,73390.0,-6.85,-35.17,-34.83,0,*51
1489021511.44,47895,7.75,73384.5,-6.81,-35.13,-34.77,0,*5B
1489021512.67,47896,7.75,73384.5,-6.81,-35.01,-34.83,0,*50
1489021513.88,47897,7.81,73394.0,-6.81,-34.77,-34.41,0,*5F
1489021515.14,47898,7.75,73388.8,-6.85,-34.65,-34.31,0,*50
1489021516.4,47899,7.75,73388.3,-6.85,-34.65,-34.31,0,*51
1489021517.63,47900,7.75,73380.5,-6.85,-34.65,-34.13,0,*50
1489021518.89,47901,7.75,73382.5,-6.81,-34.53,-34.19,0,*5A
1489021520.13,47902,7.75,73382.5,-6.81,-34.71,-34.31,0,*53
1489021521.39,47903,7.75,73382.3,-6.81,-34.65,-34.35,0,*53
1489021522.6,47904,7.75,73384.0,-6.81,-34.59,-34.25,0,*5A
1489021523.83,47905,7.75,73384.5,-6.85,-34.65,-34.25,0,*50
1489021525.06,47906,7.75,73386.0,-6.85,-34.65,-34.25,0,*53
1489021526.32,47907,7.75,73384.0,-6.85,-34.65,-34.31,0,*57
1489021527.55,47908,7.75,73384.0,-6.85,-34.71,-34.31,0,*5D
1489021528.78,47909,7.75,73386.3,-6.81,-34.65,-34.25,0,*58
1489021529.99,47910,7.75,73384.5,-6.85,-34.71,-34.41,0,*53
1489021531.23,47911,7.75,73380.5,-6.81,-35.01,-34.35,0,*53
1489021532.43,47912,7.75,73376.5,-6.85,-34.71,-34.25,0,*53
1489021533.67,47913,7.75,73372.5,-6.81,-34.77,-34.19,0,*5F
1489021534.89,47914,7.75,73370.8,-6.85,-34.83,-34.25,0,*58
1489021536.13,47915,7.75,73368.8,-6.81,-34.83,-34.07,0,*5D
1489021537.33,47916,7.75,73366.3,-6.85,-34.89,-34.13,0,*55
1489021538.54,47917,7.75,73354.8,-6.85,-34.89,-34.13,0,*54
1489021539.78,47918,7.75,73348.0,-6.81,-34.95,-34.07,0,*57
1489021540.99,47919,7.75,73352.3,-6.85,-35.01,-34.13,0,*5B
1489021542.22,47920,7.75,73348.8,-6.85,-34.83,-33.95,0,*53
1489021543.46,47921,7.75,73350.8,-6.85,-34.71,-33.89,0,*52
1489021544.69,47922,7.75,73354.3,-6.85,-34.83,-34.07,0,*5D
1489021545.93,47923,7.75,73350.3,-6.85,-35.07,-34.07,0,*51
1489021547.16,47924,7.81,73356.0,-6.91,-35.13,-34.13,0,*53
1489021548.42,47925,7.75,73356.3,-6.87,-35.07,-34.13,0,*50
1489021549.66,47926,7.75,73362.3,-6.87,-35.01,-33.95,0,*5C
1489021550.95,47927,7.75,73366.3,-6.91,-35.07,-34.01,0,*56
1489021552.19,47928,7.75,73368.8,-6.87,-34.89,-33.95,0,*53
1489021553.44,47929,7.75,73374.0,-6.87,-34.89,-33.89,0,*5F
1489021554.73,47930,7.75,73368.0,-6.87,-34.83,-33.77,0,*5C
1489021556.02,47931,7.75,73382.0,-6.87,-34.83,-33.77,0,*5D
1489021557.26,47932,7.75,73384.0,-6.91,-34.89,-33.83,0,*58
1489021558.55,47933,7.75,73384.3,-6.87,-34.65,-33.49,0,*5A
1489021559.8,47934,7.75,73380.3,-6.91,-34.71,-33.67,0,*53
1489021561.07,47935,7.75,73382.3,-6.91,-34.47,-33.27,0,*53
1489021562.33,47936,7.75,73380.3,-6.87,-34.31,-33.15,0,*57
1489021563.58,47937,7.75,73368.8,-6.91,-34.13,-33.03,0,*56
1489021564.84,47938,7.75,73364.8,-6.87,-34.07,-32.97,0,*57
1489021566.08,47939,7.75,73362.0,-6.87,-34.41,-33.15,0,*5F
1489021567.34,47940,7.75,73368.3,-6.87,-34.31,-33.15,0,*56
1489021568.63,47941,7.75,73364.0,-6.91,-34.35,-33.27,0,*55
1489021569.84,47942,7.75,73368.0,-6.85,-34.25,-33.15,0,*53
1489021571.06,47943,7.75,73370.8,-6.81,-34.07,-32.91,0,*5B
1489021572.26,47944,7.75,73368.8,-6.85,-34.25,-33.03,0,*52
1489021573.47,47945,7.75,73376.0,-6.85,-34.25,-33.03,0,*53
1489021574.68,47946,7.75,73380.3,-6.85,-34.47,-33.21,0,*54
1489021575.9,47947,7.75,73382.0,-6.85,-34.59,-33.21,0,*5A
1489021577.11,47948,7.75,73382.0,-6.85,-34.59,-33.15,0,*52
1489021578.38,47949,7.75,73382.5,-6.81,-34.53,-33.09,0,*50
1489021579.62,47950,7.75,73386.8,-6.85,-34.47,-32.97,0,*5F
1489021580.87,47951,7.75,73378.8,-6.85,-34.31,-32.63,0,*54
1489021582.11,47952,7.75,73372.8,-6.85,-34.07,-32.29,0,*5C
1489021583.35,47953,7.75,73370.3,-6.81,-34.07,-32.07,0,*55
1489021584.61,47954,7.75,73368.0,-6.85,-33.77,-31.91,0,*5A
1489021585.85,47955,7.75,73362.3,-6.85,-34.07,-31.91,0,*5B
1489021587.08,47956,7.75,73360.3,-6.81,-33.83,-31.57,0,*5D
1489021588.31,47957,7.75,73356.8,-6.81,-33.89,-31.33,0,*54
1489021589.53,47958,7.75,73356.0,-6.81,-33.83,-31.05,0,*54
1489021590.77,47959,7.75,73360.0,-6.81,-33.95,-30.89,0,*57
1489021592.0,47960,7.75,73372.3,-6.81,-33.83,-30.55,0,*5B
1489021593.24,47961,7.75,73384.3,-6.81,-33.77,-30.23,0,*50
1489021594.48,47962,7.75,73390.8,-6.81,-33.49,-29.57,0,*55
1489021595.71,47963,7.75,73390.3,-6.81,-33.37,-29.17,0,*59
1489021596.98,47964,7.75,73390.3,-6.79,-33.09,-28.69,0,*5C
1489021598.27,47965,7.75,73382.8,-6.79,-32.85,-28.05,0,*52
1489021599.5,47966,7.75,73376.0,-6.77,-32.45,-27.55,0,*59
1489021600.76,47967,7.75,73376.8,-6.79,-32.19,-27.13,0,*5D
1489021602.02,47968,7.75,73376.0,-6.79,-32.01,-26.71,0,*5E
1489021603.29,47969,7.75,73374.0,-6.77,-31.57,-26.29,0,*5C
1489021604.58,47970,7.75,73372.8,-6.75,-31.23,-25.75,0,*5F
1489021605.82,47971,7.75,73366.8,-6.77,-30.73,-25.09,0,*53
1489021607.05,47972,7.75,73372.0,-6.77,-30.33,-24.67,0,*5D
1489021608.28,47973,7.75,73368.5,-6.77,-29.45,-23.95,0,*5F
1489021609.53,47974,7.75,73366.3,-6.75,-28.85,-23.43,0,*5C
1489021610.79,47975,7.75,73360.8,-6.75,-28.31,-23.03,0,*56
1489021612.03,47976,7.75,73346.8,-6.75,-27.93,-22.57,0,*52
1489021613.26,47977,7.75,73332.0,-6.69,-27.39,-22.41,0,*59
1489021614.47,47978,7.75,73342.8,-6.73,-27.03,-22.11,0,*51
1489021615.73,47979,7.75,73354.0,-6.69,-26.71,-21.97,0,*52
1489021616.96,47980,7.75,73356.3,-6.69,-26.39,-21.97,0,*58
1489021618.17,47981,7.75,73374.8,-6.69,-26.03,-21.73,0,*5A
1489021619.41,47982,7.75,73374.3,-6.69,-25.71,-21.73,0,*5F
1489021620.64,47983,7.75,73382.0,-6.69,-25.55,-21.73,0,*58
1489021621.9,47984,7.75,73382.8,-6.67,-25.35,-21.83,0,*58
1489021623.11,47985,7.75,73382.8,-6.69,-25.35,-22.03,0,*5C
1489021624.37,47986,7.75,73382.0,-6.67,-25.03,-22.11,0,*57
1489021625.6,47987,7.75,73386.5,-6.67,-25.13,-22.41,0,*52
1489021626.84,47988,7.75,73392.3,-6.67,-25.13,-22.63,0,*5D
1489021628.12,47989,7.75,73386.3,-6.67,-24.87,-22.73,0,*51
1489021629.41,47990,7.75,73388.0,-6.67,-24.83,-22.73,0,*5D
1489021630.67,47991,7.75,73384.0,-6.67,-24.87,-23.09,0,*54
1489021631.93,47992,7.75,73382.8,-6.67,-25.29,-23.75,0,*59
1489021633.2,47993,7.75,73390.0,-6.67,-25.71,-24.47,0,*53
1489021634.47,47994,7.75,73390.3,-6.67,-26.03,-24.83,0,*5A
1489021635.7,47995,7.75,73388.3,-6.67,-26.45,-25.35,0,*55
1489021636.97,47996,7.75,73396.0,-6.67,-26.81,-25.87,0,*57
1489021638.23,47997,7.75,73394.5,-6.67,-27.03,-26.29,0,*5A
1489021639.49,47998,7.75,73390.3,-6.67,-27.45,-26.65,0,*5F
1489021640.73,47999,7.75,73390.0,-6.67,-27.71,-27.03,0,*58
1489021641.97,48000,7.75,73388.5,-6.65,-28.15,-27.35,0,*54
1489021643.23,48001,7.75,73390.5,-6.65,-28.75,-27.99,0,*55
1489021644.49,48002,7.75,73388.0,-6.67,-29.17,-28.37,0,*5A
1489021645.76,48003,7.75,73388.8,-6.67,-29.51,-28.69,0,*52
1489021646.97,48004,7.75,73388.0,-6.65,-29.95,-29.23,0,*50
1489021648.23,48005,7.75,73388.3,-6.67,-30.27,-29.73,0,*57
1489021649.51,48006,7.75,73386.0,-6.63,-30.73,-30.05,0,*58
1489021650.74,48007,7.75,73384.5,-6.65,-31.01,-30.39,0,*54
1489021651.99,48008,7.75,73382.3,-6.65,-31.45,-30.61,0,*56
1489021653.25,48009,7.75,73380.0,-6.67,-31.79,-30.95,0,*51
1489021654.49,48010,7.75,73380.8,-6.65,-32.07,-31.17,0,*5A
1489021655.71,48011,7.75,73380.5,-6.65,-32.39,-31.45,0,*51
1489021656.94,48012,7.75,73386.3,-6.65,-32.39,-31.61,0,*54
1489021658.15,48013,7.81,73386.3,-6.65,-32.91,-31.79,0,*5E
1489021659.41,48014,7.75,73382.5,-6.67,-33.21,-31.95,0,*53
1489021660.7,48015,7.75,73380.0,-6.67,-33.27,-32.07,0,*5C
1489021661.96,48016,7.75,73374.8,-6.67,-33.61,-32.39,0,*50
1489021663.22,48017,7.75,73378.5,-6.67,-33.77,-32.57,0,*5E
1489021664.45,48018,7.75,73384.5,-6.67,-33.83,-32.57,0,*5A
1489021665.7,48019,7.75,73386.0,-6.65,-33.83,-32.75,0,*59
1489021666.96,48020,7.75,73380.8,-6.67,-34.13,-32.85,0,*50
1489021668.21,48021,7.75,73380.5,-6.67,-34.13,-32.91,0,*54
1489021669.45,48022,7.75,73382.0,-6.65,-34.01,-32.91,0,*56
1489021670.69,48023,7.75,73382.0,-6.67,-34.13,-33.03,0,*5C
1489021671.95,48024,7.75,73386.0,-6.67,-34.01,-33.03,0,*58
1489021673.22,48025,7.75,73386.8,-6.67,-34.13,-33.09,0,*50
1489021674.51,48026,7.75,73388.8,-6.67,-34.31,-33.49,0,*57
1489021675.77,48027,7.75,73386.8,-6.67,-34.35,-33.67,0,*5E
1489021677.0,48028,7.75,73388.0,-6.69,-34.41,-33.73,0,*59
1489021678.21,48029,7.75,73390.3,-6.69,-34.41,-33.55,0,*5C
1489021679.42,48030,7.75,73380.8,-6.69,-34.41,-33.67,0,*55
1489021680.64,48031,7.75,73378.0,-6.73,-34.59,-33.83,0,*5C
1489021681.91,48032,7.75,73366.5,-6.69,-34.65,-33.73,0,*54
1489021683.14,48033,7.75,73382.8,-6.73,-34.41,-33.73,0,*58
1489021684.36,48034,7.75,73380.8,-6.73,-34.41,-33.67,0,*5A
1489021685.58,48035,7.75,73372.5,-6.73,-34.47,-33.67,0,*5D
1489021686.82,48036,7.75,73366.3,-6.69,-34.41,-33.73,0,*56
1489021688.05,48037,7.75,73346.5,-6.73,-34.41,-33.49,0,*55
1489021689.29,48038,7.75,73358.0,-6.73,-34.35,-33.37,0,*50
1489021690.56,48039,7.75,73352.3,-6.69,-34.35,-33.49,0,*53
1489021691.82,48040,7.75,73354.8,-6.73,-34.35,-33.49,0,*56
1489021693.06,48041,7.75,73354.8,-6.73,-34.35,-33.55,0,*5A
1489021694.27,48042,7.75,73352.0,-6.73,-34.41,-33.55,0,*5A
1489021695.51,48043,7.75,73356.3,-6.73,-34.41,-33.49,0,*56
1489021696.72,48044,7.75,73374.3,-6.73,-34.41,-33.37,0,*58
1489021697.94,48045,7.75,73372.3,-6.73,-34.47,-33.67,0,*5A
1489021699.16,48046,7.75,73360.5,-6.69,-34.41,-33.67,0,*54
1489021700.37,48047,7.75,73348.8,-6.73,-34.41,-33.67,0,*5E
1489021701.58,48048,7.75,73358.8,-6.73,-34.41,-33.55,0,*50
1489021702.8,48049,7.75,73368.0,-6.73,-34.41,-33.37,0,*55
1489021704.01,48050,7.75,73376.0,-6.69,-34.47,-33.55,0,*54
1489021705.23,48051,7.75,73368.0,-6.73,-34.47,-33.67,0,*5F
1489021706.48,48052,7.75,73372.0,-6.73,-34.47,-33.73,0,*59